Regional Weather Roundup
Issued by NWS

Home | Current Version | Previous Version | Graphics & Text | Print | Product List | Glossary On
Versions: 1 2 3 4 5 6 7 8 9 10 11 12 13 14 15 16 17 18 19 20 21 22 23 24 25 26 27 28 29 30 31 32 33 34 35 36 37 38 39 40 41 42 43 44 45 46 47 48 49 50
000
ASUS45 KABQ 022110
RWRNM
NEW MEXICO REGIONAL WEATHER ROUNDUP
NATIONAL WEATHER SERVICE ALBUQUERQUE NM
300 PM MDT MON MAY 02 2016

NOTE: "FAIR" MEANS FEW OR NO CLOUDS BELOW 12,000 FEET AGL WITH NO
       SIGNIFICANT WEATHER OR OBSTRUCTIONS TO VISION.

      THIS PRODUCT IS RELEASED AS TWO VERSIONS.  ONE VERSION NEAR
      THE TOP OF THE HOUR CONTAINING PRELIMINARY DATA FROM ALBUQUERQUE
      AND OTHER STATIONS.  A FINAL VERSION WITH ADDITIONAL DATA IS
      ISSUED ABOUT 10 MINUTES AFTER THE HOUR.

NMZ501-503-504-510>518-022200-
NORTHWEST PLATEAU/NORTHCENTRAL MOUNTAINS

CITY           SKY/WX    TMP DP  RH WIND       PRES   REMARKS
FARMINGTON     PTSUNNY   58  31  35 N6        30.19F
LOS ALAMOS     CLOUDY    49  32  51 NE3       30.24F
SANTA FE       FAIR      56  30  37 MISG      30.20F
TAOS           FAIR      52  30  43 NW6       30.22F
ANGEL FIRE     FAIR      50  30  46 W14       30.22F

$$
NMZ402-403-502-505>509-022200-
WESTCENTRAL MOUNTAINS/SOUTHWEST MOUNTAINS

CITY           SKY/WX    TMP DP  RH WIND       PRES   REMARKS
GALLUP         FAIR      55  37  50 NE9       30.21F
GRANTS         FAIR      55  38  53 E5        30.24F
SILVER CITY      N/A     64  30  27 SE14G22   30.18F

$$
NMZ407-409-411-412-022200-
SOUTHERN DESERTS

CITY           SKY/WX    TMP DP  RH WIND       PRES   REMARKS
LORDSBURG      FAIR      70  32  24 E18G25    30.12F
DEMING         FAIR      69  32  25 E13       30.13F
LAS CRUCES     FAIR      67  30  24 S6        30.16F
HOLLOMAN AFB   FAIR      65  32  28 VRB6      30.14F
ALAMOGORDO     FAIR      64  30  27 SW9       30.16F
T OR C         FAIR      64  31  28 E8        30.15F

$$
NMZ519>523-022200-
CENTRAL VALLEYS/CENTRAL HIGHLANDS

CITY           SKY/WX    TMP DP  RH WIND       PRES   REMARKS
ALBUQUERQUE    FAIR      59  33  37 N6        30.21F
DOUBLE EAGLE   MOSUNNY   55  36  47 CALM      30.23F
MORIARTY ARPT  PTSUNNY   58  32  37 CALM      30.22F
CLINES CORNERS FAIR      54  29  38 W14G21    30.20F
BELEN          FAIR      58  32  37 SE3       30.20F
SOCORRO        FAIR      64  32  31 CALM      30.17F

$$
NMZ524>526-539-540-022200-
SOUTHCENTRAL MOUNTAINS

CITY           SKY/WX    TMP DP  RH WIND       PRES   REMARKS
RUIDOSO          N/A     54  34  47 SE8       30.24F

$$
NMZ527>531-022200-
NORTHEAST HIGHLANDS/NORTHEAST PLAINS

CITY           SKY/WX    TMP DP  RH WIND       PRES   REMARKS
LAS VEGAS      FAIR      53  32  44 S13       30.19F
RATON          FAIR      56  30  37 VRB5      30.17F
CLAYTON        PTSUNNY   56  33  42 VRB3      30.17F

$$
NMZ532>537-022200-
EASTCENTRAL PLAINS

CITY           SKY/WX    TMP DP  RH WIND       PRES   REMARKS
TUCUMCARI      FAIR      60  33  36 CALM      30.16F
CANNON AFB     FAIR      60  32  35 VRB7      30.17F
CLOVIS AIRPORT FAIR      59  34  38 S5        30.19F

$$
NMZ028-029-538-022200-
SOUTHEAST PLAINS

CITY           SKY/WX    TMP DP  RH WIND       PRES   REMARKS
ROSWELL        FAIR      63  33  32 VRB5      30.18F
ARTESIA        FAIR      63  34  34 E7        30.18F
CARLSBAD       FAIR      64  34  32 VRB5      30.16F
HOBBS          SUNNY     64  32  29 NE7       30.18F


$$




USA.gov is the U.S. government's official web portal to all federal, state and local government web resources and services.